CZ-3B R/B, 63525

Orbit data source: Space-Track

CZ-3B R/B, 63525 is space debris in HEO originally from a launch on Thu, 10 Apr 2025 UTC launched from the Xichang Space Center, China (XSC). Debris objects in space refer to the collection of defunct objects orbiting the Earth. Examples of debris include non-operational satellites, rocket bodies, and fragments generated from explosions, collisions, or faulty payload assembly.

Loading next visibility...
Identifier
63525, 2025-073B
Orbit
HEO
Last TLE update
2 days ago
Origin
Manufacturer
CALT
Mission
Spacecraft
Bus & Motor
CZ-3A STAGE 3, Unknown motor
Mass
~2,800 kg wet, ~2,800 kg dry
Launch date (UTC)
2025-04-10 (3 weeks ago)
Launch vehicle
Unknown
Launch site
Xichang Space Center, China (XSC)
Object type
Payload
Rocket body
Debris
Shape & HBR
Unknown
Radar Cross Section
Large (>1 m²)

Expand to show TLE details & history

TLE from 2 days ago
0 CZ-3B R/B
1 63525U 25073B   25118.78134794  .00085891  59863-6  66753-3 0  9996
2 63525  19.1370  81.1689 7348084 192.7711 125.8300  2.25023815   400
Epoch: 2025-04-28T18:45Z
Definitive object data (Epoch: 2025-04-28T18:45:08.462Z)
Latitude
-0.00001°
Longitude
-57.15924°
Altitude
33,574.246 km
Speed
1.936 km/s
True Right ascension
05h 24m 27s
True Declination
0° 00' 00"
Sunlit
Object was in daylight at TLE epoch
Visualization TLE readout
Latitude
-18.43773°
Longitude
-164.45482°
Altitude
1,926.667 km
Speed
8.932 km/s
Apparent Right ascension
00h 39m 54s
Apparent Declination
-40° 13' 03"
Sunlit
Object is in daylight
Visualization observer readout
Local Sidereal Time
17:26:29
Azimuth
115.194° SE
Elevation
-36.779°
Doppler factor
1
Orbital elements
Apogee altitude
36,304.667 km
Perigee altitude
146.573 km
Semi-major axis
24,603.757 km
Eccentricity
0.7348084
Inclination
19.137°
RAAN
81.1689°
Arg. of periapsis
192.7711°
True anomaly
167.2425°
Mean anomaly
125.83°
Eccentric anomaly
148.08645°
Mean motion
0.56239 °/min
BSTAR
0.00066753
Orbital period
640.12 mins
Loading maneuver chart data...
Loading SW <> Apogee altitude chart data...
Loading historical data...
Loading historical data...
Loading historical data...
Loading historical data...
Loading historical data...
Loading historical data...
Loading historical data...
Other satellites on launch #73 in the year 2025 (2025-04-10 UTC)

CZ-3B R/B Visibility forecast

Observer location: undefined°, undefined°

Span
Click to sort rows by Start time (UTC) header in descending order
Start Az.
Max El. time (UTC)
Max El. Az.
Max El.
End time (UTC)
End Az.
568 mins2025-04-30 21:16:34.839Z217.285° SW2025-04-30 23:47:34.839Z223.259° SW28.545°2025-05-01 06:44:34.839Z175.16° S
|